www.pogodaiklimat.ru

Погода и климат >> Архив погоды >> Россия >> Нижегородская область >> Большое Болдино


ПОГОДА в Большом Болдино

  • Прогноз погоды в Большом Болдино
  • Монитор погоды в Большом Болдино
  • Климат города

АРХИВ ПОГОДЫ в Большом Болдино

Время (UTC), дата Ветер
(напр.,м/с)
 
Видим.   Явления Облачность Т
(С)
Тd
(С)
f
(%)
Тe
(С)
Тes
(С)
Комфортность P
(гПа)
Po
(гПа)
Тmin
(С)
Tmax
(С)
R
(мм)
R24
(мм)
S
(см)
03 11.08 З 3-4
{6}
20 км 3/0
[Ci fib]
+16.1 +11.7 75 +16 +16 1023.1 1000.3 +15.5
06 11.08 З 4-6
{7}
20 км 4/0
[Ci fib]
+23.3 +14.6 58 +27 +32 душно 1022.2 999.9
09 11.08 З 6-10
{10}
20 км 5/3
[Cu hum Ci fib]
+27.0 +13.9 45 +29 +33 жарко 1021.8 999.2
12 11.08 З 6-9
{11}
20 км ясно +28.0 +10.5 34 +29 +32 жарко 1019.5 997.6
15 11.08 З 4-6
{10}
20 км ясно +26.3 +8.4 32 +26 +27 жарко 1018.2 996.3 +28.2
18 11.08 Ю 2-3
{7}
20 км ясно +20.6 +10.7 53 +23 +23 комфорт 1018.6 996.2
21 11.08 ЮЗ 1-2
{4}
20 км ясно +16.6 +10.2 66 +18 +18 1018.9 996.2
00 12.08 ЮЗ 1-2
{3}
20 км ясно +16.0 +9.9 67 +17 +17 1018.6 995.8
03 12.08 ЮЗ 1-3
{3}
20 км ясно +16.3 +10.6 69 +17 +18 1018.3 995.6 +15.4
06 12.08 ЮЗ 1-3
{3}
20 км ясно +21.6 +13.6 60 +24 +33 комфорт 1016.9 994.6
09 12.08 ЮЗ 3-7
{8}
20 км ясно +26.7 +9.0 33 +27 +38 жарко 1015.7 993.8
12 12.08 З 3-5
{8}
20 км ясно +27.8 +8.6 30 +28 +34 жарко 1014.0 992.3
15 12.08 ЮЗ 3-4
{7}
20 км ясно +26.4 +7.4 30 +26 +27 жарко 1012.6 990.8 +28.3
18 12.08 Ю 1-2
{4}
20 км ясно +21.1 +8.1 43 +22 +22 комфорт 1012.4 990.1
21 12.08 В 1-1
{2}
20 км ясно +16.8 +9.8 63 +18 +18 1012.0 989.4
00 13.08 Ю 1-3
{3}
20 км ясно +16.1 +10.3 68 +17 +17 1011.2 988.6
03 13.08 ЮЗ 1-3
{5}
10 км 8/0
[Ci]
+16.4 +10.6 69 +17 +18 1010.9 988.3 +15.6
06 13.08 З 2-4
{5}
20 км 10/1 600 м
[Cu med, cong Cs]
+21.6 +13.4 60 +24 +30 комфорт 1010.5 988.3
09 13.08 ЮЗ 5-7
{7}
20 км 9/3 600 м
[Cu med, cong Cs]
+24.4 +12.4 47 +26 +30 жарко 1010.1 988.1
12 13.08 ЮЗ 7-10
{11}
20 км 8/3 1000 м
[Cu med, cong Ci]
+26.4 +5.5 26 +26 +27 жарко 1008.9 987.1
15 13.08 З 5-8
{10}
20 км 6/0
[Ac trans Ci fib]
+24.4 +6.7 32 +24 +25 комфорт 1008.7 986.8 +27.4
18 13.08 ЮЗ 2-3
{8}
20 км 10/0
[Ac trans Ci fib]
+18.6 +8.1 50 +20 +20 1009.9 987.5
21 13.08 ЮЗ 2-3
{4}
20 км 3/0
[Ci fib]
+15.8 +8.4 61 +16 +16 1010.9 988.1
00 14.08 Ю 2-3
{3}
20 км 10/0
[Ac und]
+15.2 +8.9 66 +15 +15 1011.1 988.4
03 14.08 ЮЗ 3-4
{5}
20 км 10/0
[Ac und]
+14.6 +9.3 70 +14 +14 1011.8 989.1 +14.5
06 14.08 З 3-5
{6}
20 км 10/0
[Ac und]
+16.5 +9.2 62 +16 +18 1012.5 989.9
09 14.08 З 5-8
{9}
20 км 10/0
[Ac trans Ci fib]
+21.1 +7.3 41 +22 +27 комфорт 1012.7 990.4
12 14.08 З 6-9
{10}
20 км 10/0
[Ac trans Ci fib]
+23.1 +7.4 36 +24 +26 комфорт 1012.8 990.7
15 14.08 СЗ 4-6
{10}
20 км 6/0
[Ac trans Ci fib]
+21.7 +6.4 37 +22 +23 комфорт 1013.7 991.5 +23.2
18 14.08 ЮЗ 2-2
{7}
20 км 3/0
[Ci fib]
+17.2 +7.0 51 +18 +18 1015.8 993.1
21 14.08 Ю 1-2
{3}
20 км 3/0
[Ci fib]
+12.1 +7.6 74 +12 +12 1016.8 993.1
00 15.08 Ю 1-2
{3}
20 км ясно +10.7 +7.4 80 +10 +10 1017.8 994.6
03 15.08 Ю 1-2
{3}
20 км 3/0
[Ci fib]
+13.6 +7.6 67 +14 +15 1018.1 995.2 +10.5
06 15.08 Ю 2-4
{5}
20 км 3/1 600 м
[Cu hum Ci fib]
+20.7 +9.9 50 +23 +29 комфорт 1017.4 995.0
09 15.08 Ю 2-5
{8}
20 км 4/3 600 м
[Cu hum Ci fib]
+24.5 +7.1 33 +25 +33 комфорт 1016.8 994.7
12 15.08 ЮЗ 3-7
{8}
20 км 8/3 600 м
[Cu hum Ci]
+26.0 +8.0 32 +26 +30 жарко 1015.4 993.4
15 15.08 Ю 2-4
{9}
20 км 8/0
[Ac cuf Ci fib]
+24.8 +10.6 41 +26 +26 жарко 1014.4 992.4 +26.8
18 15.08 Ю 2-4
{7}
20 км 8/0
[Ac trans Ci fib]
+21.4 +11.1 52 +23 +23 комфорт 1014.0 991.8
21 15.08 Ю 3-8
{9}
20 км 3/0
[Ac trans]
+20.8 +11.0 53 +23 +23 комфорт 1012.7 990.4
00 16.08 Ю 3-7
{9}
20 км ясно +19.5 +11.1 58 +21 +21 комфорт 1012.0 989.7
03 16.08 Ю 3-6
{7}
20 км 4/0
[Ac trans Ci]
+19.2 +11.2 60 +20 +21 1011.9 989.6 +18.9
06 16.08 ЮЗ 4-7
{8}
20 км 10/4 600 м
[Sc Ac und]
+21.4 +13.0 59 +24 +25 комфорт 1012.3 990.1
09 16.08 З 7-11
{11}
20 км 8/3 600 м
[Cu hum Ac trans Ci]
+26.1 +14.0 47 +28 +30 жарко 1012.1 990.3
12 16.08 З 6-9
{11}
20 км 10/4 600 м
[Cb cap Ac trans Ci]
+25.4 +13.0 46 +27 +28 жарко 1012.9 991.0
15 16.08 З 3-5
{9}
20 км 10/4 600 м
[Cb cap Ac und]
+23.6 +13.7 54 +26 +26 жарко 1013.4 991.4 +27.1
18 16.08 СЗ 2-3
{10}
10 км в посл. час ливневой дождь 10/8 540 м
[Cb cap Ac und]
+18.1 +15.1 83 +19 +19 1015.6 993.1
21 16.08 С 3-4
{4}
10 км 8/4 600 м
[Sc Ac trans Ci]
+15.6 +13.4 87 +15 +15 1016.9 994.1
00 17.08 С 3-4
{7}
10 км 10/4 600 м
[Cb cap Ac und]
+14.6 +12.6 88 +14 +14 1018.2 995.4
03 17.08 С 3-4
{6}
20 км 10/4 600 м
[Cb cap Ac trans Ci]
+13.4 +11.3 87 +12 +12 1019.5 996.6 +12.8 0.6
06 17.08 СВ 3-6
{6}
20 км 9/9 720 м
[Cu med, cong]
+17.5 +12.3 72 +18 +18 1021.0 998.3
09 17.08 С 4-7
{9}
20 км 8/8 840 м
[Cu med, cong]
+19.8 +10.4 55 +21 +23 комфорт 1021.1 998.5
12 17.08 СВ 3-6
{8}
20 км 8/8 840 м
[Cu med, cong]
+21.6 +9.5 46 +23 +24 комфорт 1020.6 998.2
15 17.08 С 3-6
{10}
20 км 6/3 600 м
[Cu med, cong Ac trans Ci]
+20.2 +8.8 48 +22 +22 комфорт 1021.2 998.6 +22.9
18 17.08 СВ 2-2
{7}
20 км ясно +15.4 +8.8 65 +15 +15 1021.9 999.0
21 17.08 В 1-2
{3}
20 км ясно +12.6 +8.6 77 +13 +13 1022.7 999.6

 

Местоположение метеостанции Большое Болдино (Нижегородская область, Россия): широта 55.02 долгота 45.32 высота над уровнем моря 192 м.

В архиве по умолчанию представлена погода в Большом Болдино за последнюю неделю. Архивные данные за месяц целиком и за предыдущие месяцы, начиная с января 2011 года, Вы можете получить, выбрав интересующий диапазон дат из раскрывающегося списка и нажав кнопку "Ввод!".


*Определитесь, кто Вы:
робот инопланетянин человек

Внимание! Время в таблицах - всемирное. Для получения местного времени необходимо прибавить поправку, которая в Большом Болдино равна 3 ч.

Смотрите также архив погоды в соседних городах и на ближайших метеорологических станциях:

Погода в Лукоянове (Нижегородская область, Россия) (52 км)
Погода в Сергаче (Нижегородская область, Россия) (58 км)
Погода в Порецком (Чувашия, Россия) (67 км)
Погода в Алатыре (Чувашия, Россия) (84 км)
Погода в Саранске (Мордовия, Россия) (99 км)
Погода в Больших Березниках (Мордовия, Россия) (104 км)
Погода в Арзамасе (Нижегородская область, Россия) (105 км)
Погода в Сурском (Ульяновская область, Россия) (107 км)
Погода в Лысково (Нижегородская область, Россия) (112 км)
Погода в Дальнем Константиново (Нижегородская область, Россия) (117 км)

Пояснения к столбцам:

Ветер - указаны скорость ветра в м/с - средняя за 10 мин, порывы в срок и между сроками (в фигурных скобках) и направление, откуда дует ветер: С - северный, СВ - северо-восточный, В - восточный, ЮВ - юго-восточный, Ю - южный, ЮЗ - юго-западный, З - западный, СЗ - северо-западный.
Видимость - горизонтальная дальность видимости в метрах или километрах. При видимости от 1 до 10 км при отсутствии осадков обычно наблюдается дымка, при ухудшении видимости до 1 км и менее - туман. В сухую погоду видимость может ухудшаться дымом, пылью или мглою.
Явления - указаны атмосферные явления, наблюдавшиеся в срок или в последний час перед сроком; фигурными скобками обозначены явления, наблюдавшиеся между сроками (за 1-3 часа до срока); квадратными скобками обозначены град или гололедные отложения с указанием их диаметра в мм.
Облачность - указаны через наклонную черту общая и нижняя облачность в баллах и высота нижней границы облаков в метрах; квадратными скобками обозначены формы облаков: Ci - перистые, Cs - перисто-слоистые, Cc - перисто-кучевые, Ac - высококучевые, As - высокослоистые, Sc - слоисто-кучевые, Ns - слоисто-дождевые, Cu - кучевые, Cb - кучево-дождевые. Подробнее классификацию облаков см. в Атласе облаков (PDF).
T - Температура воздуха - температура, измеренная на высоте 2 м над землей.
Td - Температура точки росы - температура, при понижении до которой содержащийся в воздухе водяной пар достигнет насыщения.
f - Относительная влажность воздуха - влажноcть воздуха, измеренная на высоте 2 м над землей.
Te - Эффективная температура - температура, которую ощущает одетый по сезону человек в тени. Характеристика душности погоды. При расчете учитывается влияние влажности воздуха и скорости ветра на теплоощущения человека.
Tes - Эффективная температура на солнце - температура, которую ощущает человек, с поправкой на солнечный нагрев. Характеристика знойности погоды. Зависит от высоты солнца над горизонтом, облачности и скорости ветра. Ночью, в пасмурную погоду, а также при ветре 12 м/с и более поправка равна нулю.
P - Атмосферное давление - приведенное к уровню моря атмосферное давление.
Po - Атмосферное давление - измеренное на уровне метеостанции атмосферное давление.
Tmin - Минимальная температура - минимум температуры воздуха на высоте 2 м над землей.
Tmax - Максимальная температура - максимум температуры воздуха на высоте 2 м над землей.
R - Количество осадков - Количество выпавших осадков за период времени, мм. При наведении курсора мыши на число - период времени, за который выпало указанное количество осадков.
R24 - Количество осадков - Количество выпавших осадков за 24 часа, мм.
S - Снежный покров - Высота снежного покрова, см. При наведении курсора мыши на число - состояние снежного покрова и степень покрытия местности в баллах.